Regional Weather Roundup
Issued by NWS

Home | Current Version | Previous Version | Text Only | Print | Product List | Glossary Off
Versions: 1 2 3 4 5 6 7 8 9 10 11 12 13 14 15 16 17 18 19 20 21 22 23 24 25 26 27 28 29 30 31 32 33 34 35 36 37 38 39 40 41 42 43 44 45 46 47 48 49 50

802
ASUS43 KBIS 041402
RWRND

NORTH DAKOTA REGIONAL WEATHER ROUNDUP
NATIONAL WEATHER SERVICE BISMARCK ND
900 AM CDT WED MAY 04 2016

NOTE: "FAIR" INDICATES FEW OR NO CLOUDS BELOW 12,000 FEET WITH NO
SIGNIFICANT WEATHER AND/OR OBSTRUCTIONS TO VISIBILITY.


NDZ001>003-009>011-017-041500-
NORTHWEST NORTH DAKOTA

CITY           SKY/WX    TMP DP  RH WIND       PRES   REMARKS
WILLISTON      SUNNY     59  41  51 S6        30.06F
MINOT          MOSUNNY   55  34  45 SE6       30.07S
MINOT AFB      MOSUNNY   52  37  55 SE8       30.05F
$$

NDZ018>021-031>035-040>046-041500-
SOUTHWEST NORTH DAKOTA

CITY           SKY/WX    TMP DP  RH WIND       PRES   REMARKS
BISMARCK       SUNNY     48  36  63 E3        30.13S
DICKINSON      SUNNY     61  39  44 S7        30.09S
GARRISON         N/A     52  31  44 S6        30.09F
HETTINGER ARPT SUNNY     58  37  45 SW5       30.14S
$$

NDZ004>008-012>016-024-026-027-054-041500-
NORTHEAST NORTH DAKOTA

CITY           SKY/WX    TMP DP  RH WIND       PRES   REMARKS
GRAND FORKS    MOSUNNY   49  36  61 NW9       30.12R
GRND FRKS AFB  SUNNY     48  36  61 N7        30.12R
DEVILS LAKE    SUNNY     49  38  65 CALM      30.13S
$$

NDZ022-023-025-028>030-036>039-047>053-041500-
SOUTHEAST NORTH DAKOTA

CITY           SKY/WX    TMP DP  RH WIND       PRES   REMARKS
FARGO          SUNNY     50  35  56 N8        30.10R
JAMESTOWN      SUNNY     50  35  56 NW7       30.12R
$$





USA.gov is the U.S. government's official web portal to all federal, state and local government web resources and services.